HEBOWX Weather Reports


time (UTC)temp
C
wind
direction
speed
KPH
gust
KPH
rain 1hr
cm
rain 24hr
cm
rain mn
cm
humidity
%
barometer
mb
20260503195024 23 44 0.0 4.8 0.00 0.00 0.00 20 1010.8
20260503194524 23 102 1.6 6.4 0.00 0.00 0.00 20 1010.9
20260503194024 23 15 0.0 6.4 0.00 0.00 0.00 20 1010.9
20260503193524 22 88 0.0 6.4 0.00 0.00 0.00 20 1010.9
20260503193024 22 113 3.2 6.4 0.00 0.00 0.00 20 1010.9
20260503192523 22 51 0.0 6.4 0.00 0.00 0.00 22 1010.9
20260503192024 22 35 0.0 3.2 0.00 0.00 0.00 21 1010.9
20260503191523 22 357 1.6 1.6 0.00 0.00 0.00 21 1010.9
20260503191024 22 67 0.0 8.0 0.00 0.00 0.00 22 1011.1
20260503190523 22 56 0.0 8.0 0.00 0.00 0.00 23 1010.9
20260503190023 22 113 0.0 8.0 0.00 0.00 0.00 24 1010.9
20260503185523 22 37 3.2 8.0 0.00 0.00 0.00 23 1010.9
20260503185024 22 44 0.0 8.0 0.00 0.00 0.00 24 1010.9
20260503184524 22 89 0.0 8.0 0.00 0.00 0.00 25 1010.9
20260503184024 22 58 3.2 8.0 0.00 0.00 0.00 25 1010.9
20260503183524 22 65 1.6 6.4 0.00 0.00 0.00 25 1010.9
20260503183024 21 56 0.0 6.4 0.00 0.00 0.00 25 1010.9
20260503182523 21 96 0.0 6.4 0.00 0.00 0.00 26 1010.9
20260503182024 21 88 1.6 4.8 0.00 0.00 0.00 26 1010.9
20260503181523 21 49 0.0 4.8 0.00 0.00 0.00 26 1010.9
20260503181023 21 102 1.6 4.8 0.00 0.00 0.00 26 1010.9
20260503180524 21 119 0.0 9.7 0.00 0.00 0.00 25 1010.9
20260503180026 21 116 0.0 9.7 0.00 0.00 0.00 26 1010.8
20260503175523 21 119 0.0 9.7 0.00 0.00 0.00 27 1010.9
20260503175024 21 109 0.0 6.4 0.00 0.00 0.00 26 1010.8
20260503174523 20 123 1.6 11.3 0.00 0.00 0.00 27 1010.8
20260503174023 20 117 3.2 11.3 0.00 0.00 0.00 28 1010.7
20260503173525 20 210 0.0 11.3 0.00 0.00 0.00 28 1010.7
20260503173023 20 112 4.8 11.3 0.00 0.00 0.00 28 1010.7
20260503172523 20 112 3.2 11.3 0.00 0.00 0.00 28 1010.7
20260503172024 20 8 4.8 12.9 0.00 0.00 0.00 29 1010.7
20260503171523 20 130 1.6 12.9 0.00 0.00 0.00 28 1010.7
20260503171023 20 100 1.6 12.9 0.00 0.00 0.00 29 1010.6
20260503170523 19 112 4.8 11.3 0.00 0.00 0.00 29 1010.6
20260503150523 16 98 6.4 14.5 0.00 0.00 0.00 34 1010.5
20260503131212 15 36 8.0 17.7 0.00 0.00 0.00 37 1010.2
20260503131023 15 36 8.0 17.7 0.00 0.00 0.00 37 1010.2
20260503130523 15 26 8.0 17.7 0.00 0.00 0.00 38 1010.2
20260503110523 15 29 4.8 12.9 0.00 0.00 0.00 44 1010.6
20260503081522 15 63 4.8 11.3 0.00 0.00 0.00 45 1011.4
20260503081022 15 92 3.2 11.3 0.00 0.00 0.00 45 1011.4
20260503080523 15 64 3.2 11.3 0.00 0.00 0.00 44 1011.3
20260503072522 15 106 1.6 9.7 0.00 0.00 0.00 45 1011.4
20260503072022 15 49 3.2 9.7 0.00 0.00 0.00 45 1011.5
20260503071522 15 35 3.2 9.7 0.00 0.00 0.00 45 1011.5
20260503071022 15 47 3.2 9.7 0.00 0.00 0.00 45 1011.5
20260503070522 15 25 3.2 6.4 0.00 0.00 0.00 43 1011.6
20260503055022 14 117 0.0 6.4 0.00 0.00 0.00 45 1011.6
20260503054522 14 106 1.6 12.9 0.00 0.00 0.00 45 1011.4
20260503054023 14 50 3.2 12.9 0.00 0.00 0.00 46 1011.4
20260503053522 14 49 3.2 12.9 0.00 0.00 0.00 46 1011.5
20260503053022 14 116 3.2 9.7 0.00 0.00 0.00 46 1011.5
20260503052523 14 85 1.6 6.4 0.00 0.00 0.00 45 1011.5
20260503052022 14 357 0.0 12.9 0.00 0.00 0.00 45 1011.5
20260503051522 14 147 3.2 12.9 0.00 0.00 0.00 45 1011.5
20260503051056 14 54 1.6 12.9 0.00 0.00 0.00 46 1011.5
20260503051022 14 54 1.6 12.9 0.00 0.00 0.00 46 1011.5
20260503050522 14 92 4.8 9.7 0.00 0.00 0.00 47 1011.5
20260503050022 14 131 1.6 9.7 0.00 0.00 0.00 48 1011.5
20260503045522 13 137 1.6 9.7 0.00 0.00 0.00 50 1011.5
20260503045022 14 107 4.8 9.7 0.00 0.00 0.00 51 1011.5
20260503044522 14 126 3.2 9.7 0.00 0.00 0.00 52 1011.5
20260503044022 14 109 3.2 9.7 0.00 0.00 0.00 51 1011.5
20260503043522 14 113 3.2 9.7 0.00 0.00 0.00 51 1011.4
20260503043022 14 128 3.2 8.0 0.00 0.00 0.00 51 1011.4
20260503042522 14 106 1.6 11.3 0.00 0.00 0.00 51 1011.3
20260503042022 14 43 3.2 11.3 0.00 0.00 0.00 51 1011.3
20260503041522 14 112 3.2 11.3 0.00 0.00 0.00 52 1011.2
20260503041022 14 43 6.4 17.7 0.00 0.00 0.00 52 1011.5
20260503040522 13 40 6.4 17.7 0.00 0.00 0.00 52 1010.9
20260503040022 13 60 6.4 17.7 0.00 0.00 0.00 52 1011.4
20260503035523 13 39 8.0 16.1 0.00 0.00 0.00 52 1010.8
20260503035022 13 50 6.4 14.5 0.00 0.00 0.00 53 1010.8
20260503034522 13 67 9.7 14.5 0.00 0.00 0.00 53 1010.7
20260503034023 13 42 8.0 14.5 0.00 0.00 0.00 54 1010.8
20260503033522 13 65 6.4 14.5 0.00 0.00 0.00 55 1010.6
20260503033022 13 123 8.0 14.5 0.00 0.00 0.00 57 1010.7
20260503032522 13 99 6.4 12.9 0.00 0.00 0.00 60 1010.6
20260503032022 12 123 8.0 11.3 0.00 0.00 0.00 62 1010.6
20260503031522 12 106 4.8 9.7 0.00 0.00 0.00 62 1010.6
20260503031022 13 72 4.8 8.0 0.00 0.00 0.00 62 1010.7
20260503030522 13 33 4.8 4.8 0.00 0.00 0.00 61 1010.5
20260503030022 13 95 1.6 4.8 0.00 0.00 0.00 59 1010.8
20260503025522 13 96 0.0 4.8 0.00 0.00 0.00 58 1010.8
20260503025022 14 99 0.0 4.8 0.00 0.00 0.00 57 1010.5
20260503024522 14 113 0.0 3.2 0.00 0.00 0.00 57 1010.5
20260503024021 14 61 0.0 3.2 0.00 0.00 0.00 56 1010.6
20260503023522 15 117 0.0 3.2 0.00 0.00 0.00 55 1010.6
20260503023022 15 133 0.0 4.8 0.00 0.00 0.00 54 1010.6
20260503022522 15 103 0.0 4.8 0.00 0.00 0.00 53 1010.5
20260503022022 15 36 1.6 4.8 0.00 0.00 0.00 52 1010.4
20260503021522 15 35 0.0 4.8 0.00 0.00 0.00 51 1010.5
20260503021022 15 53 0.0 4.8 0.00 0.00 0.00 1 1010.2
20260503020523 15 78 0.0 4.8 0.00 0.00 0.00 51 1010.3
20260503020022 15 98 0.0 3.2 0.00 0.00 0.00 52 1010.4
20260503015522 15 71 0.0 3.2 0.00 0.00 0.00 52 1010.4
20260503015022 15 43 0.0 3.2 0.00 0.00 0.00 51 1010.4
20260503014522 15 77 0.0 3.2 0.00 0.00 0.00 51 1010.3
20260503014022 15 77 0.0 3.2 0.00 0.00 0.00 51 1010.5
20260503013522 16 0 0.0 0.0 0.00 0.00 0.00 52 1010.4
20260503013022 16 0 0.0 0.0 0.00 0.00 0.00 51 1010.5
20260503012522 16 0 0.0 8.0 0.00 0.00 0.00 51 1010.6
20260503012023 16 0 0.0 8.0 0.00 0.00 0.00 50 1010.5
20260503011522 16 60 0.0 8.0 0.00 0.00 0.00 50 1010.5
20260503011021 16 56 0.0 3.2 0.00 0.00 0.00 51 1010.5
20260503010522 16 61 0.0 3.2 0.00 0.00 0.00 51 1010.5
20260503010021 16 0 0.0 1.6 0.00 0.00 0.00 51 1010.4
20260503005521 16 89 0.0 1.6 0.00 0.00 0.00 51 1010.5
20260503005022 16 89 0.0 1.6 0.00 0.00 0.00 51 1010.5
20260503004521 16 93 0.0 6.4 0.00 0.00 0.00 51 1010.5
20260503004022 16 91 0.0 6.4 0.00 0.00 0.00 51 1010.4
20260503003522 16 113 0.0 6.4 0.00 0.00 0.00 51 1010.2
20260503003021 16 49 0.0 3.2 0.00 0.00 0.00 50 1010.1
20260503002521 16 127 0.0 3.2 0.00 0.00 0.00 49 1010.3
20260503002022 17 0 0.0 3.2 0.00 0.00 0.00 49 1010.2
20260503001521 17 85 0.0 3.2 0.00 0.00 0.00 49 1010.2
20260503001022 17 117 0.0 4.8 0.00 0.00 0.00 48 1010.2
20260503000522 17 86 0.0 4.8 0.00 0.00 0.00 48 1010.3
20260503000021 17 105 0.0 4.8 0.00 0.00 0.00 48 1010.3
20260502235521 16 89 0.0 4.8 0.00 0.00 0.00 49 1010.2
20260502235021 16 0 0.0 4.8 0.00 0.00 0.00 50 1010.3
20260502234522 16 58 0.0 4.8 0.00 0.00 0.00 49 1010.3
20260502234021 16 96 0.0 4.8 0.00 0.00 0.00 47 1010.3
20260502233521 16 117 1.6 4.8 0.00 0.00 0.00 49 1010.4
20260502233021 16 88 1.6 3.2 0.00 0.00 0.00 48 1010.5
20260502232521 16 147 0.0 4.8 0.00 0.00 0.00 49 1010.7
20260502232021 16 40 1.6 4.8 0.00 0.00 0.00 48 1010.6
20260502231521 16 110 0.0 4.8 0.00 0.00 0.00 48 1010.5
20260502231021 16 0 1.6 4.8 0.00 0.00 0.00 48 1010.6
20260502230521 16 0 0.0 4.8 0.00 0.00 0.00 47 1010.8
20260502230021 16 106 0.0 4.8 0.00 0.00 0.00 48 1010.7
20260502225521 16 53 0.0 1.6 0.00 0.00 0.00 47 1010.8
20260502225021 16 0 0.0 0.0 0.00 0.00 0.00 48 1010.8
20260502224521 16 49 0.0 8.0 0.00 0.00 0.00 47 1010.8
20260502224021 16 54 0.0 8.0 0.00 0.00 0.00 47 1010.9
20260502223521 16 310 0.0 8.0 0.00 0.00 0.00 46 1010.9
20260502223021 17 68 0.0 3.2 0.00 0.00 0.00 46 1011.1
20260502222521 17 29 0.0 3.2 0.00 0.00 0.00 46 1010.9
20260502222021 17 93 0.0 8.0 0.00 0.00 0.00 45 1011.2
20260502221521 17 110 0.0 8.0 0.00 0.00 0.00 45 1011.2
20260502221021 17 357 0.0 8.0 0.00 0.00 0.00 46 1011.1
20260502220521 17 85 0.0 4.8 0.00 0.00 0.00 45 1011.3
20260502220022 17 138 0.0 3.2 0.00 0.00 0.00 45 1011.4
20260502215521 17 105 0.0 3.2 0.00 0.00 0.00 45 1011.4
20260502215021 16 105 0.0 3.2 0.00 0.00 0.00 45 1011.3
20260502214521 16 56 1.6 6.4 0.00 0.00 0.00 45 1011.5
20260502214021 16 100 0.0 6.4 0.00 0.00 0.00 45 1011.2
20260502213521 17 140 0.0 6.4 0.00 0.00 0.00 44 1011.2
20260502213021 16 277 3.2 3.2 0.00 0.00 0.00 44 1011.2
20260502212521 16 357 0.0 1.6 0.00 0.00 0.00 44 1011.2
20260502212021 16 0 0.0 0.0 0.00 0.00 0.00 45 1011.3
20260502211521 16 102 0.0 6.4 0.00 0.00 0.00 46 1011.3
20260502211021 15 79 1.6 6.4 0.00 0.00 0.00 47 1011.3
20260502210521 15 106 0.0 6.4 0.00 0.00 0.00 48 1011.4
20260502210021 15 82 0.0 3.2 0.00 0.00 0.00 49 1011.4
20260502205521 14 112 0.0 12.9 0.00 0.00 0.00 49 1011.4
20260502205021 13 119 0.0 12.9 0.00 0.00 0.00 51 1011.3
20260502204522 13 71 0.0 12.9 0.00 0.00 0.00 53 1011.3
20260502204021 13 50 3.2 12.9 0.00 0.00 0.00 54 1011.4
20260502203521 13 50 4.8 8.0 0.00 0.00 0.00 55 1011.3
20260502203021 13 49 0.0 3.2 0.00 0.00 0.00 55 1011.5
20260502202521 13 77 0.0 11.3 0.00 0.00 0.00 55 1011.5
20260502202021 13 57 0.0 11.3 0.00 0.00 0.00 54 1011.5
20260502201521 13 63 1.6 11.3 0.00 0.00 0.00 55 1011.6
20260502201022 13 114 6.4 9.7 0.00 0.00 0.00 55 1011.6
20260502200521 12 74 0.0 8.0 0.00 0.00 0.00 55 1011.5
20260502200021 13 280 1.6 6.4 0.00 0.00 0.00 55 1011.6
20260502195521 13 77 0.0 6.4 0.00 0.00 0.00 54 1011.6